Washington, PA

4:11 PM EST on November 24, 2017 (GMT -0500)
Washington County

Weather History for KAFJ - July, 2013

Change the Weather History Date:

Saturday, July 27, 2013

  Actual Average Record
Temperature  
Mean Temperature 64 °F -  
Max Temperature 73 °F 79 °F 93 °F (1999)
Min Temperature 55 °F 59 °F 51 °F (1998)
Degree Days  
Heating Degree Days 1    
Growing Degree Days 14 (Base 50)    
Moisture  
Dew Point 62 °F    
Average Humidity 91    
Maximum Humidity 100    
Minimum Humidity 78    
Precipitation  
Precipitation 0.52 in - - ()
Sea Level Pressure  
Sea Level Pressure 29.96 in    
Wind  
Wind Speed 1 mph (ESE)    
Max Wind Speed 9 mph    
Max Gust Speed -    
Visibility 8 miles    
Events Thunderstorm    
Averages and records for this station are not official NWS values.
T = Trace of Precipitation, MM = Missing Value Source: NWS Daily Summary

Daily Weather History Graph

Daily Weather History Graph

Search for Another Location

Airport or City:

Trip Planner

Search our weather history database for the weather conditions in past years. The results will help you decide how hot, cold, wet, or windy it might be!

Date:

Astronomy

Jul. 27, 2013 Rise Set
Actual Time 6:14 AM EDT 8:39 PM EDT
Civil Twilight 5:43 AM EDT 9:10 PM EDT
Nautical Twilight 5:05 AM EDT 9:48 PM EDT
Astronomical Twilight 4:23 AM EDT 10:30 PM EDT
Moon 11:26 PM EDT (7/27) 11:54 AM EDT (7/27)
Length of Visible Light 15h 26m
Length of Day
14h 25m
Waning Gibbous, 71% of the Moon is Illuminated
Jul 27
Waning Gibbous
Jul 29
Last Quarter
Aug 6
New
Aug 14
First Quarter
Aug 20
Full

Hourly Weather History & Observations

Time (EDT) Temp. Dew Point Humidity Pressure Visibility Wind Dir Wind Speed Gust Speed Precip Events Conditions
12:15 AM 57.2 °F 55.4 °F 94% 30.04 in 3.0 mi Calm Calm - N/A   Clear
12:35 AM 55.4 °F 55.4 °F 100% 30.03 in 0.2 mi Calm Calm - N/A   Mostly Cloudy
12:55 AM 57.2 °F 55.4 °F 94% 30.03 in 0.8 mi Calm Calm - N/A   Unknown
1:15 AM 57.2 °F 57.2 °F 100% 30.03 in 1.0 mi Calm Calm - N/A   Clear
1:35 AM 57.2 °F 55.4 °F 94% 30.02 in 2.5 mi Calm Calm - N/A   Clear
1:55 AM 57.2 °F 55.4 °F 94% 30.02 in 0.8 mi Calm Calm - N/A   Unknown
2:15 AM 57.2 °F 55.4 °F 94% 30.01 in 5.0 mi Calm Calm - N/A   Clear
2:35 AM 57.2 °F 55.4 °F 94% 30.01 in 7.0 mi Calm Calm - N/A   Clear
2:55 AM 55.4 °F 55.4 °F 100% 30.00 in 2.0 mi Calm Calm - N/A   Clear
3:15 AM 57.2 °F 55.4 °F 94% 29.99 in 2.5 mi Calm Calm - N/A   Clear
3:35 AM 57.2 °F 55.4 °F 94% 29.99 in 3.0 mi Calm Calm - N/A   Clear
3:55 AM 55.4 °F 55.4 °F 100% 29.99 in 2.0 mi Calm Calm - N/A   Clear
4:15 AM 57.2 °F 57.2 °F 100% 29.98 in 9.0 mi Calm Calm - N/A   Clear
4:35 AM 57.2 °F 55.4 °F 94% 29.98 in 5.0 mi Calm Calm - N/A   Clear
4:55 AM 55.4 °F 55.4 °F 100% 29.98 in 3.0 mi Calm Calm - N/A   Clear
5:15 AM 57.2 °F 57.2 °F 100% 29.97 in 0.8 mi Calm Calm - N/A   Unknown
5:35 AM 57.2 °F 57.2 °F 100% 29.98 in 5.0 mi Calm Calm - N/A   Clear
5:55 AM 57.2 °F 57.2 °F 100% 29.98 in 5.0 mi Calm Calm - N/A   Clear
6:15 AM 57.2 °F 55.4 °F 94% 29.98 in 4.0 mi Calm Calm - N/A   Clear
6:35 AM 57.2 °F 57.2 °F 100% 29.98 in 3.0 mi Calm Calm - N/A   Partly Cloudy
6:55 AM 57.2 °F 55.4 °F 94% 29.98 in 6.0 mi Calm Calm - N/A   Partly Cloudy
7:15 AM 57.2 °F 55.4 °F 94% 29.98 in 2.5 mi Calm Calm - N/A   Partly Cloudy
7:35 AM 60.8 °F 59.0 °F 94% 29.99 in 10.0 mi Calm Calm - N/A   Mostly Cloudy
7:55 AM 60.8 °F 60.8 °F 100% 29.99 in 10.0 mi Calm Calm - N/A   Overcast
8:15 AM 62.6 °F 60.8 °F 94% 29.99 in 10.0 mi Calm Calm - N/A   Overcast
8:35 AM 64.4 °F 60.8 °F 88% 29.99 in 10.0 mi Calm Calm - N/A   Overcast
8:55 AM 64.4 °F 60.8 °F 88% 29.99 in 10.0 mi Calm Calm - N/A   Overcast
9:15 AM 64.4 °F 62.6 °F 94% 29.99 in 10.0 mi Calm Calm - N/A   Overcast
9:35 AM 64.4 °F 62.6 °F 94% 30.00 in 10.0 mi SE 4.6 mph - N/A   Overcast
9:55 AM 64.4 °F 62.6 °F 94% 29.99 in 2.0 mi Calm Calm - 0.22 in   Overcast
10:15 AM 64.4 °F 62.6 °F 94% 29.99 in 5.0 mi Calm Calm - 0.01 in   Mostly Cloudy
10:35 AM 64.4 °F 62.6 °F 94% 29.98 in 6.0 mi Calm Calm - 0.03 in   Overcast
10:55 AM 64.4 °F 62.6 °F 94% 29.99 in 10.0 mi Calm Calm - 0.03 in   Overcast
11:15 AM 64.4 °F 62.6 °F 94% 29.99 in 4.0 mi East 3.5 mph - 0.22 in   Overcast
11:35 AM 64.4 °F 64.4 °F 100% 29.98 in 3.0 mi Calm Calm - 0.25 in Thunderstorm Thunderstorm
11:55 AM 66.2 °F 64.4 °F 94% 29.97 in 7.0 mi Calm Calm - 0.25 in   Overcast
12:15 PM 66.2 °F 64.4 °F 94% 29.97 in 9.0 mi ESE 3.5 mph - N/A   Overcast
12:35 PM 66.2 °F 64.4 °F 94% 29.97 in 10.0 mi East 5.8 mph - N/A   Overcast
12:55 PM 66.2 °F 66.2 °F 100% 29.96 in 10.0 mi ENE 6.9 mph - N/A   Overcast
1:15 PM 69.8 °F 64.4 °F 83% 29.96 in 10.0 mi Calm Calm - N/A   Mostly Cloudy
1:35 PM 71.6 °F 66.2 °F 83% 29.95 in 10.0 mi ENE 3.5 mph - N/A   Scattered Clouds
1:55 PM 71.6 °F 66.2 °F 83% 29.95 in 10.0 mi Calm Calm - N/A   Mostly Cloudy
2:15 PM 71.6 °F 66.2 °F 83% 29.94 in 10.0 mi East 4.6 mph - N/A   Mostly Cloudy
2:35 PM 71.6 °F 66.2 °F 83% 29.93 in 10.0 mi ENE 4.6 mph - N/A   Mostly Cloudy
2:55 PM 73.4 °F 66.2 °F 78% 29.93 in 10.0 mi NE 4.6 mph - N/A   Mostly Cloudy
3:15 PM 73.4 °F 68.0 °F 83% 29.92 in 10.0 mi East 5.8 mph - N/A   Mostly Cloudy
3:35 PM 73.4 °F 66.2 °F 78% 29.92 in 10.0 mi ENE 8.1 mph - N/A   Overcast
3:55 PM 73.4 °F 68.0 °F 83% 29.91 in 10.0 mi East 4.6 mph - N/A   Mostly Cloudy
4:15 PM 73.4 °F 66.2 °F 78% 29.91 in 10.0 mi ENE 6.9 mph - N/A   Mostly Cloudy
4:35 PM 73.4 °F 68.0 °F 83% 29.90 in 10.0 mi ENE 9.2 mph - N/A   Mostly Cloudy
4:55 PM 73.4 °F 66.2 °F 78% 29.90 in 10.0 mi ENE 9.2 mph - N/A   Mostly Cloudy
5:15 PM 71.6 °F 66.2 °F 83% 29.90 in 10.0 mi East 5.8 mph - 0.01 in Thunderstorm Overcast
5:35 PM 71.6 °F 68.0 °F 88% 29.90 in 10.0 mi SE 6.9 mph - 0.02 in Thunderstorm Overcast
5:55 PM 71.6 °F 68.0 °F 88% 29.89 in 10.0 mi East 6.9 mph - 0.02 in   Mostly Cloudy
6:15 PM 71.6 °F 66.2 °F 83% 29.89 in 10.0 mi ESE 6.9 mph - N/A   Scattered Clouds
6:35 PM 71.6 °F 64.4 °F 78% 29.89 in 10.0 mi ESE 3.5 mph - N/A   Scattered Clouds
6:55 PM 69.8 °F 64.4 °F 83% 29.90 in 10.0 mi SE 5.8 mph - N/A   Mostly Cloudy
7:15 PM 69.8 °F 64.4 °F 83% 29.90 in 10.0 mi ESE 4.6 mph - N/A   Overcast
7:35 PM 69.8 °F 64.4 °F 83% 29.90 in 10.0 mi ESE 3.5 mph - N/A   Overcast
7:55 PM 69.8 °F 64.4 °F 83% 29.91 in 10.0 mi ESE 3.5 mph - N/A   Overcast
8:15 PM 69.8 °F 64.4 °F 83% 29.91 in 10.0 mi East 3.5 mph - N/A   Overcast
8:35 PM 69.8 °F 66.2 °F 88% 29.91 in 10.0 mi East 3.5 mph - N/A   Overcast
8:55 PM 68.0 °F 64.4 °F 88% 29.91 in 10.0 mi Calm Calm - N/A Thunderstorm Thunderstorm
9:15 PM 68.0 °F 66.2 °F 94% 29.90 in 10.0 mi East 3.5 mph - N/A   Overcast
9:35 PM 68.0 °F 64.4 °F 88% 29.90 in 10.0 mi East 3.5 mph - N/A   Overcast
9:55 PM 68.0 °F 64.4 °F 88% 29.91 in 10.0 mi SSE 3.5 mph - N/A Thunderstorm Overcast
10:15 PM 66.2 °F 64.4 °F 94% 29.92 in 10.0 mi Calm Calm - N/A   Mostly Cloudy
10:35 PM 66.2 °F 64.4 °F 94% 29.92 in 10.0 mi SE 3.5 mph - N/A   Overcast
10:55 PM 66.2 °F 64.4 °F 94% 29.92 in 10.0 mi SE 3.5 mph - N/A   Overcast
11:15 PM 66.2 °F 64.4 °F 94% 29.92 in 10.0 mi ESE 4.6 mph - N/A   Overcast
11:35 PM 66.2 °F 64.4 °F 94% 29.92 in 9.0 mi SE 3.5 mph - N/A   Mostly Cloudy
11:55 PM 66.2 °F 64.4 °F 94% 29.92 in 10.0 mi SSE 6.9 mph - N/A   Mostly Cloudy